Weather reports worldwide

Advertisment
South Newington, United Kingdom (99166): temperature & dewpoint: 16.05.2018 16:00:00 - 22.05.2018 16:00:00 (BST)South Newington, United Kingdom (99166): temperature -20cm & temperature -100cm: 16.05.2018 16:00:00 - 22.05.2018 16:00:00 (BST)South Newington, United Kingdom (99166): precipitation: 16.05.2018 16:00:00 - 22.05.2018 16:00:00 (BST)
Date & Time tt [°C] td [°C] tt -20cm [°C] tt -100cm [°C] rr [mm]
22.05.2018 16:00:00 - - - - -
22.05.2018 15:00:00 - - - - 0,0
22.05.2018 14:00:00 - - - - 0,0
22.05.2018 13:00:00 - - - - 0,0
22.05.2018 12:00:00 17,5 12,0 - - 0,0
22.05.2018 11:00:00 16,9 11,4 - - 0,0
22.05.2018 10:00:00 15,3 9,3 15,7 11,9 0,0
22.05.2018 09:00:00 15,0 9,6 - - 0,0
22.05.2018 08:00:00 12,5 8,5 - - 0,0
22.05.2018 07:00:00 12,7 8,9 - - 0,0
22.05.2018 06:00:00 10,6 8,7 - - 0,0
22.05.2018 05:00:00 10,3 8,4 - - 0,0
22.05.2018 04:00:00 10,4 8,5 - - 0,0
22.05.2018 03:00:00 10,9 8,8 - - 0,0
22.05.2018 02:00:00 11,0 8,3 - - 0,0
22.05.2018 01:00:00 11,4 9,2 - - 0,0
22.05.2018 00:00:00 8,7 7,7 - - 0,0
21.05.2018 23:00:00 9,7 7,8 - - 0,0
21.05.2018 22:00:00 12,6 8,2 - - 0,0
21.05.2018 21:00:00 17,5 6,7 - - 0,0
21.05.2018 20:00:00 18,6 11,7 - - 0,0
21.05.2018 19:00:00 19,5 9,2 - - 0,0
21.05.2018 18:00:00 20,5 10,7 - - 0,0
21.05.2018 17:00:00 21,0 11,0 - - 0,0
21.05.2018 16:00:00 21,4 10,6 - - 0,0
21.05.2018 15:00:00 21,4 11,9 - - 0,0
21.05.2018 14:00:00 21,1 12,6 - - 0,0
21.05.2018 13:00:00 20,0 11,0 - - 0,0
21.05.2018 12:00:00 19,4 11,6 - - 0,0
21.05.2018 11:00:00 17,5 9,4 - - 0,0
21.05.2018 10:00:00 16,4 9,8 15,4 11,7 0,0
21.05.2018 09:00:00 14,9 10,1 - - 0,0
21.05.2018 08:00:00 11,4 11,4 - - 0,0
21.05.2018 07:00:00 5,7 5,7 - - 0,0
21.05.2018 06:00:00 2,3 2,1 - - 0,0
21.05.2018 05:00:00 2,2 1,9 - - 0,0
21.05.2018 04:00:00 3,0 2,7 - - 0,0
21.05.2018 03:00:00 3,7 3,3 - - 0,0
21.05.2018 02:00:00 5,1 4,7 - - 0,0
21.05.2018 01:00:00 6,2 5,7 - - 0,0
21.05.2018 00:00:00 7,7 7,2 - - 0,0
20.05.2018 23:00:00 8,1 7,2 - - 0,0
20.05.2018 22:00:00 9,7 8,2 - - 0,0
20.05.2018 21:00:00 12,6 9,2 - - 0,0
20.05.2018 20:00:00 17,9 9,1 - - 0,0
20.05.2018 19:00:00 19,9 8,3 - - 0,0
20.05.2018 18:00:00 21,0 8,1 - - 0,0
20.05.2018 17:00:00 21,1 8,7 - - 0,0
20.05.2018 16:00:00 21,1 7,4 - - 0,0
20.05.2018 15:00:00 20,8 6,1 - - 0,0
20.05.2018 14:00:00 19,6 8,6 - - 0,0
20.05.2018 13:00:00 19,6 9,1 - - 0,0
20.05.2018 12:00:00 19,1 9,9 - - 0,0
20.05.2018 11:00:00 17,9 10,6 - - 0,0
20.05.2018 10:00:00 16,7 11,2 15,0 11,7 0,0
20.05.2018 09:00:00 14,8 11,1 - - 0,0
20.05.2018 08:00:00 11,4 10,7 - - 0,0
20.05.2018 07:00:00 6,9 6,9 - - 0,0
20.05.2018 06:00:00 2,9 2,7 - - 0,0
20.05.2018 05:00:00 2,7 2,4 - - 0,0
20.05.2018 04:00:00 3,3 3,0 - - 0,0
20.05.2018 03:00:00 3,7 3,3 - - 0,0
20.05.2018 02:00:00 4,3 3,9 - - 0,0
20.05.2018 01:00:00 5,0 4,5 - - 0,0
20.05.2018 00:00:00 5,6 4,8 - - 0,0
19.05.2018 23:00:00 7,0 6,0 - - 0,0
19.05.2018 22:00:00 8,6 6,6 - - 0,0
19.05.2018 21:00:00 12,5 8,9 - - 0,0
19.05.2018 20:00:00 17,2 6,8 - - 0,0
19.05.2018 19:00:00 18,4 5,5 - - 0,0
19.05.2018 18:00:00 19,6 7,4 - - 0,0
19.05.2018 17:00:00 19,7 5,9 - - 0,0
19.05.2018 16:00:00 19,6 7,4 - - 0,0
19.05.2018 15:00:00 18,8 7,0 - - 0,0
19.05.2018 14:00:00 19,5 8,5 - - 0,0
19.05.2018 13:00:00 18,0 6,9 - - 0,0
19.05.2018 12:00:00 18,0 7,2 - - 0,0
19.05.2018 11:00:00 17,2 9,1 - - 0,0
19.05.2018 10:00:00 16,3 8,6 14,7 11,7 0,0
19.05.2018 09:00:00 15,5 9,2 - - 0,0
19.05.2018 08:00:00 11,3 10,1 - - 0,0
19.05.2018 07:00:00 5,5 5,5 - - 0,0
19.05.2018 06:00:00 1,6 1,5 - - 0,0
19.05.2018 05:00:00 1,3 1,0 - - 0,0
19.05.2018 04:00:00 1,9 1,5 - - 0,0
19.05.2018 03:00:00 2,5 2,0 - - 0,0
19.05.2018 02:00:00 3,3 2,9 - - 0,0
19.05.2018 01:00:00 4,1 3,5 - - 0,0
19.05.2018 00:00:00 5,2 4,5 - - 0,0
18.05.2018 23:00:00 6,1 5,1 - - 0,0
18.05.2018 22:00:00 7,3 5,5 - - 0,0
18.05.2018 21:00:00 10,8 7,5 - - 0,0
18.05.2018 20:00:00 14,9 6,8 - - 0,0
18.05.2018 19:00:00 15,7 5,9 - - 0,0
18.05.2018 18:00:00 16,3 6,2 - - 0,0
18.05.2018 17:00:00 16,0 5,0 - - 0,0
18.05.2018 16:00:00 15,8 4,1 - - 0,0
18.05.2018 15:00:00 16,3 6,6 - - 0,0
18.05.2018 14:00:00 15,2 6,8 - - 0,0
18.05.2018 13:00:00 15,4 7,0 - - 0,0
18.05.2018 12:00:00 13,3 5,9 - - 0,0
18.05.2018 11:00:00 12,2 5,3 - - 0,0
18.05.2018 10:00:00 11,2 5,8 14,4 11,5 0,0
18.05.2018 09:00:00 9,4 5,5 - - 0,0
18.05.2018 08:00:00 8,0 7,2 - - 0,0
18.05.2018 07:00:00 4,3 4,3 - - 0,0
18.05.2018 06:00:00 -0,9 -1,1 - - 0,0
18.05.2018 05:00:00 -0,8 -1,2 - - 0,0
18.05.2018 04:00:00 -0,4 -0,8 - - 0,0
18.05.2018 03:00:00 0,3 -0,1 - - 0,0
18.05.2018 02:00:00 0,9 0,3 - - 0,0
18.05.2018 01:00:00 2,6 2,0 - - 0,0
18.05.2018 00:00:00 3,7 2,7 - - 0,0
17.05.2018 23:00:00 5,2 3,1 - - 0,0
17.05.2018 22:00:00 7,6 4,2 - - 0,0
17.05.2018 21:00:00 10,1 5,4 - - 0,0
17.05.2018 20:00:00 12,4 5,2 - - 0,0
17.05.2018 19:00:00 13,6 4,7 - - 0,0
17.05.2018 18:00:00 14,6 5,1 - - 0,0
17.05.2018 17:00:00 14,4 4,4 - - 0,0
17.05.2018 16:00:00 15,0 5,4 - - 0,0
17.05.2018 15:00:00 14,5 3,8 - - 0,0
17.05.2018 14:00:00 13,9 4,9 - - 0,0
17.05.2018 13:00:00 13,7 4,7 - - 0,0
17.05.2018 12:00:00 12,8 4,7 - - 0,0
17.05.2018 11:00:00 11,5 4,5 - - 0,0
17.05.2018 10:00:00 10,5 4,7 14,5 11,2 0,0
17.05.2018 09:00:00 9,2 5,0 - - 0,0
17.05.2018 08:00:00 7,2 4,9 - - 0,0
17.05.2018 07:00:00 6,1 4,5 - - 0,0
17.05.2018 06:00:00 4,0 3,6 - - 0,0
17.05.2018 05:00:00 2,9 2,2 - - 0,0
17.05.2018 04:00:00 3,7 2,7 - - 0,0
17.05.2018 03:00:00 5,4 3,7 - - 0,0
17.05.2018 02:00:00 4,8 3,4 - - 0,0
17.05.2018 01:00:00 5,0 3,4 - - 0,0
17.05.2018 00:00:00 6,6 3,6 - - 0,0
16.05.2018 23:00:00 8,0 4,2 - - 0,0
16.05.2018 22:00:00 9,3 5,4 - - 0,0
16.05.2018 21:00:00 9,6 5,2 - - 0,0
16.05.2018 20:00:00 10,7 5,5 - - 0,0
16.05.2018 19:00:00 12,1 6,7 - - 0,0
16.05.2018 18:00:00 12,2 6,8 - - 0,0
16.05.2018 17:00:00 13,1 6,9 - - 0,0
16.05.2018 16:00:00 13,3 6,7 - - 0,0

tt = temperature
td = dewpoint
tt -20cm = temperature -20cm
tt -100cm = temperature -100cm
rr = precipitation

Next stations